Regional Weather Roundup
Issued by NWS

Home | Current Version | Previous Version | Text Only | Print | Product List | Glossary Off
Versions: 1 2 3 4 5 6 7 8 9 10 11 12 13 14 15 16 17 18 19 20 21 22 23 24 25 26 27 28 29 30 31 32 33 34 35 36 37 38 39 40 41 42 43 44 45 46 47 48 49 50

000
ASUS43 KBIS 010320
RWRND

NORTH DAKOTA REGIONAL WEATHER ROUNDUP
NATIONAL WEATHER SERVICE BISMARCK ND
1000 PM CDT FRI OCT 31 2014

NOTE: "FAIR" INDICATES FEW OR NO CLOUDS BELOW 12,000 FEET WITH NO
SIGNIFICANT WEATHER AND/OR OBSTRUCTIONS TO VISIBILITY.


NDZ001>003-009>011-017-010400-
NORTHWEST NORTH DAKOTA

CITY           SKY/WX    TMP DP  RH WIND       PRES   REMARKS
WILLISTON      CLEAR     41  18  39 SE13G22   29.93F
MINOT          PTCLDY    34  13  41 SE21G30   30.06F
MINOT AFB      PTCLDY    34  15  45 S17       30.06F
$$

NDZ018>021-031>035-040>046-010400-
SOUTHWEST NORTH DAKOTA

CITY           SKY/WX    TMP DP  RH WIND       PRES   REMARKS
BISMARCK       PTCLDY    33  15  47 S22       30.14F
DICKINSON      CLEAR     35  14  42 SE24G32   29.94F
GARRISON         N/A     36  17  46 S18G33    30.06F
HETTINGER ARPT PTCLDY    36  13  38 SE18      29.98F
$$

NDZ004>008-012>016-024-026-027-054-010400-
NORTHEAST NORTH DAKOTA

CITY           SKY/WX    TMP DP  RH WIND       PRES   REMARKS
GRAND FORKS    CLOUDY    33  20  58 S12       30.34F
GRND FRKS AFB  CLOUDY    33  20  59 S15       30.33F
DEVILS LAKE    PTCLDY    32  18  55 S21G26    30.20F WCI  20
$$

NDZ022-023-025-028>030-036>039-047>053-010400-
SOUTHEAST NORTH DAKOTA

CITY           SKY/WX    TMP DP  RH WIND       PRES   REMARKS
FARGO          PTCLDY    33  20  58 S15       30.38S
JAMESTOWN      PTCLDY    29  18  63 SE15      30.25F WCI  18
$$




USA.gov is the U.S. government's official web portal to all federal, state and local government web resources and services.